Погода в Гимове

Россия / Ульяновская область     54°00′51″N   47°55′12″E
темп.,
°C
ветер,
м/с
пор.,
м/с
влажн.,
%
обл.,
%
осадки,
мм/ч
давл.,
гПа
погр.,
м
22 апреля, чт
чт2201:00+3ю71395100 0.1 1021524
04:00+4ююв61097100 0.1 1022326
07:00+4ю599696 0.0 1023346
10:00+6ю5789100 0.0 1023420
13:00+11ю676538 0.0 10221016
16:00+13ююз585891 0.4 10211213
19:00+12ююз59655 1.1 1022315
22:00+8ю23825 1.3 102341
23 апреля, пт
пт2301:00+6ю34905 0.0 102476
04:00+5ю23915 0.0 102540
07:00+6ю22883 0.0 102566
10:00+11ююв33684 0.0 1025507
13:00+14юв3256100 0.0 10231131
16:00+14юв4352100 0.1 10221473
19:00+12вюв4664100 0.1 1021396
22:00+9в3573100 0.1 1020111
24 апреля, сб
сб2401:00+9всв2278100 0.0 101844
04:00+8ссв1182100 0.0 101614
07:00+7в2585100 0.0 1014218
10:00+9в227499 0.0 1013555
13:00+10всв4270100 0.1 1011826
16:00+11вюв336871 0.1 1010788
19:00+10юв567599 0.1 1008519
22:00+9юз4983100 0.9 1007642
25 апреля, вс
вс2501:00+5з8118199 0.1 1008931
04:00+6зюз51071100 0.1 10081170
07:00+5зюз611740 0.0 1009752
10:00+7зюз6855100 0.0 10091632
13:00+7зюз10125891 1.0 10111821
16:00+9з9115196 1.4 10131905
19:00+8зюз711525 0.3 10141262
22:00+5юз5126567 0.3 1016540
26 апреля, пн
пн2601:00+3юз513700 0.0 1017381
04:00+2юз411744 0.0 1018277
07:00+3ююз512705 0.0 1018349
10:00+9ююз8114312 0.0 10171419
13:00+11юз71038100 0.0 10172153
16:00+11юз5743100 0.0 10151881
19:00+10ююз365294 0.0 1014198
22:00+7ююз2261100 0.0 101328